Forside
METAR-TAF:

METAR-TAF

Lufthavne :

Agri-Science Center

Chillicothe, Missouri, USA

Breddekreds: 39-49N, længdekreds: 093-35W, højde: 234 m

Aktuelle vejr

Denne rapport blev lavet for 32 minutter siden, kl. 23:52 UTC
Vind stille
Temperatur -2°C
Fugtighed 63%
Tryk 1029 hPa

METAR: KCDJ 142352Z AUTO 00000KT M02/M08 A3038 RMK AO1 SLP309 T10221078 10039 21022 56017

Tid: 18:24 (00:24 UTC)


TAF: fraværende

Vejrobservationer og prognoser fra mere end 4000 lufthavne (METAR og TAF).

De gule og røde prikker repræsenterer de meteorologiske stationer.

Flyt musen over at se navnet på stationen.

Så klik over at se vejr observationer og prognoser.

At skifte det kort: Klik på de grønne knapper med et sort kors for at zoome ind; på den grønne knap med en bindestreg for at zoome ud; eller på de grønne pile for tilstødende kort.


METAR-TAF: